When you browse on this site, cookies collect data to enhance your experience and personalize the content and advertising you see.
Visit our Privacy Policy to learn more. By continuing to use the site, you agree to this use of cookies and data.
  • In Hungary
  • List of Countries
  • For 7 days
  • Water Temperature
  • Satellite Maps
  • Weather Map
  • News
  • Weather Widgets
  • user-avatar
    Login

    Hourly Weather Kvitkove

    Today, 16 February, Saturday

    Time Temperature Precipitation Wind Pressure Humidity
    00:00 -4°C° 0 mm 3 mps 750 mmHg 87%
    01:00 -4°C° 0 mm 3 mps 750 mmHg 86%
    02:00 -4°C° 0 mm 4 mps 749 mmHg 85%
    03:00 -2°C° 0 mm 3 mps 749 mmHg 84%
    04:00 -2°C° 0 mm 3 mps 749 mmHg 84%
    05:00 -2°C° 0 mm 3 mps 749 mmHg 83%
    06:00 -2°C° 0 mm 4 mps 749 mmHg 84%
    07:00 -2°C° 0 mm 4 mps 749 mmHg 85%
    08:00 -2°C° 0 mm 5 mps 749 mmHg 87%
    09:00 -1°C° 0 mm 5 mps 749 mmHg 83%
    10:00 0°C° 0 mm 5 mps 749 mmHg 79%
    11:00 +1°C° 0 mm 5 mps 749 mmHg 76%
    12:00 +1°C° 0 mm 5 mps 749 mmHg 76%
    13:00 +1°C° 0 mm 5 mps 749 mmHg 76%
    14:00 +1°C° 0 mm 5 mps 749 mmHg 76%
    15:00 +1°C° 0 mm 5 mps 749 mmHg 78%
    16:00 0°C° 0 mm 4 mps 749 mmHg 81%
    17:00 0°C° 0 mm 4 mps 749 mmHg 84%
    18:00 -1°C° 0 mm 4 mps 749 mmHg 87%
    19:00 -1°C° 0 mm 4 mps 749 mmHg 89%
    20:00 -2°C° 0 mm 4 mps 749 mmHg 92%
    21:00 -2°C° 0 mm 4 mps 749 mmHg 92%
    22:00 -1°C° 0 mm 3 mps 749 mmHg 92%
    23:00 -1°C° 0 mm 3 mps 749 mmHg 92%

    Tomorrow, 17 February, Sunday

    Time Temperature Precipitation Wind Pressure Humidity
    00:00 -1°C° 0 mm 3 mps 748 mmHg 90%
    01:00 0°C° 0 mm 3 mps 748 mmHg 88%
    02:00 -1°C° 0 mm 4 mps 748 mmHg 86%
    03:00 -2°C° 0 mm 4 mps 748 mmHg 88%
    04:00 -2°C° 0 mm 4 mps 748 mmHg 90%
    05:00 -1°C° 0 mm 3 mps 747 mmHg 91%
    06:00 -2°C° 0 mm 4 mps 747 mmHg 90%
    07:00 -1°C° 0 mm 4 mps 747 mmHg 89%
    08:00 -1°C° 0 mm 5 mps 747 mmHg 88%
    09:00 0°C° 0 mm 5 mps 747 mmHg 84%
    10:00 +1°C° 0 mm 5 mps 746 mmHg 81%
    11:00 +2°C° 0 mm 5 mps 746 mmHg 78%
    12:00 +4°C° 0 mm 6 mps 746 mmHg 72%
    13:00 +5°C° 0 mm 6 mps 745 mmHg 66%
    14:00 +8°C° 0 mm 7 mps 745 mmHg 60%
    15:00 +7°C° 0 mm 6 mps 744 mmHg 63%
    16:00 +7°C° 0 mm 6 mps 744 mmHg 65%
    17:00 +5°C° 0 mm 6 mps 743 mmHg 68%
    18:00 +5°C° 0 mm 6 mps 743 mmHg 70%
    19:00 +4°C° 0 mm 6 mps 743 mmHg 72%
    20:00 +3°C° 0 mm 6 mps 743 mmHg 74%
    21:00 +2°C° 0 mm 6 mps 743 mmHg 77%
    22:00 +2°C° 0 mm 6 mps 743 mmHg 80%
    23:00 +1°C° 0 mm 6 mps 743 mmHg 82%

    Day after tomorrow, 18 February, Monday

    Time Temperature Precipitation Wind Pressure Humidity
    00:00 +1°C° 0 mm 6 mps 743 mmHg 82%
    01:00 +1°C° 0 mm 6 mps 743 mmHg 83%
    02:00 +1°C° 0 mm 6 mps 743 mmHg 83%
    03:00 0°C° 0 mm 5 mps 743 mmHg 82%
    04:00 0°C° 0 mm 5 mps 743 mmHg 81%
    05:00 0°C° 0 mm 5 mps 743 mmHg 81%
    06:00 -1°C° 0 mm 5 mps 744 mmHg 78%
    07:00 -2°C° 0 mm 6 mps 744 mmHg 76%
    08:00 -2°C° 0 mm 6 mps 745 mmHg 74%
    09:00 -1°C° 0 mm 6 mps 745 mmHg 69%
    10:00 -1°C° 0 mm 6 mps 745 mmHg 65%
    11:00 +1°C° 0 mm 6 mps 746 mmHg 61%
    12:00 +1°C° 0 mm 6 mps 746 mmHg 57%
    13:00 +2°C° 0 mm 6 mps 746 mmHg 54%
    14:00 +2°C° 0 mm 6 mps 746 mmHg 51%
    15:00 +1°C° 0 mm 6 mps 746 mmHg 54%
    16:00 -1°C° 0 mm 6 mps 747 mmHg 57%
    17:00 -1°C° 0 mm 5 mps 747 mmHg 61%
    18:00 -2°C° 0 mm 5 mps 748 mmHg 64%
    19:00 -2°C° 0 mm 5 mps 748 mmHg 68%
    20:00 -3°C° 0 mm 4 mps 749 mmHg 72%
    21:00 -3°C° 0 mm 4 mps 749 mmHg 71%
    22:00 -4°C° 0 mm 3 mps 750 mmHg 70%
    23:00 -4°C° 0 mm 3 mps 750 mmHg 68%

    19 February, Tuesday

    Time Temperature Precipitation Wind Pressure Humidity
    00:00 -4°C° 0 mm 3 mps 750 mmHg 68%
    01:00 -4°C° 0 mm 3 mps 751 mmHg 67%
    02:00 -3°C° 0 mm 2 mps 751 mmHg 66%
    03:00 -4°C° 0 mm 2 mps 751 mmHg 66%
    04:00 -4°C° 0 mm 2 mps 752 mmHg 66%
    05:00 -4°C° 0 mm 2 mps 752 mmHg 67%
    06:00 -4°C° 0 mm 2 mps 752 mmHg 65%
    07:00 -4°C° 0 mm 2 mps 753 mmHg 63%
    08:00 -5°C° 0 mm 3 mps 753 mmHg 61%
    09:00 -3°C° 0 mm 2 mps 754 mmHg 56%
    10:00 -2°C° 0 mm 2 mps 754 mmHg 52%
    11:00 -1°C° 0 mm 2 mps 754 mmHg 47%
    12:00 -1°C° 0 mm 2 mps 754 mmHg 45%
    13:00 +2°C° 0 mm 1 mps 754 mmHg 43%
    14:00 +2°C° 0 mm 1 mps 754 mmHg 41%
    15:00 +1°C° 0 mm 1 mps 754 mmHg 46%
    16:00 -1°C° 0 mm 2 mps 754 mmHg 50%
    17:00 -2°C° 0 mm 2 mps 753 mmHg 54%
    18:00 -3°C° 0 mm 2 mps 753 mmHg 59%
    19:00 -3°C° 0 mm 2 mps 753 mmHg 63%
    20:00 -4°C° 0 mm 2 mps 753 mmHg 67%
    21:00 -4°C° 0 mm 2 mps 753 mmHg 67%
    22:00 -4°C° 0 mm 2 mps 753 mmHg 67%
    23:00 -4°C° 0 mm 2 mps 753 mmHg 67%

    20 February, Wednesday

    Time Temperature Precipitation Wind Pressure Humidity
    00:00 -4°C° 0 mm 2 mps 753 mmHg 68%
    01:00 -4°C° 0 mm 2 mps 752 mmHg 69%
    02:00 -4°C° 0 mm 2 mps 752 mmHg 70%
    03:00 -4°C° 0 mm 2 mps 752 mmHg 71%
    04:00 -4°C° 0 mm 2 mps 751 mmHg 72%
    05:00 -4°C° 0 mm 2 mps 751 mmHg 73%
    06:00 -3°C° 0 mm 2 mps 751 mmHg 70%
    07:00 -3°C° 0 mm 2 mps 751 mmHg 68%
    08:00 -2°C° 0 mm 3 mps 751 mmHg 65%
    09:00 -1°C° 0 mm 3 mps 751 mmHg 59%
    10:00 +1°C° 0 mm 3 mps 751 mmHg 53%
    11:00 +2°C° 0 mm 3 mps 750 mmHg 48%
    12:00 +1°C° 0 mm 4 mps 750 mmHg 50%
    13:00 +3°C° 0 mm 4 mps 750 mmHg 53%
    14:00 +3°C° 0 mm 4 mps 749 mmHg 56%
    15:00 +3°C° 0 mm 4 mps 749 mmHg 63%
    16:00 +2°C° 0 mm 3 mps 749 mmHg 70%
    17:00 +1°C° 0 mm 3 mps 749 mmHg 77%
    18:00 0°C° 0 mm 3 mps 749 mmHg 80%
    19:00 0°C° 0 mm 3 mps 749 mmHg 84%
    20:00 -1°C° 0 mm 3 mps 749 mmHg 88%
    21:00 -1°C° 0 mm 4 mps 749 mmHg 86%
    22:00 -1°C° 0 mm 4 mps 749 mmHg 84%
    23:00 0°C° 0 mm 4 mps 748 mmHg 82%

    21 February, Thursday

    Time Temperature Precipitation Wind Pressure Humidity
    00:00 0°C° 0 mm 4 mps 748 mmHg 83%
    01:00 0°C° 0 mm 4 mps 748 mmHg 84%
    02:00 +1°C° 0 mm 3 mps 748 mmHg 85%
    03:00 +1°C° 0 mm 3 mps 748 mmHg 88%
    04:00 +1°C° 0 mm 3 mps 747 mmHg 92%
    05:00 +1°C° 0 mm 3 mps 747 mmHg 95%
    06:00 0°C° 0 mm 4 mps 747 mmHg 95%
    07:00 +1°C° 0 mm 4 mps 747 mmHg 95%
    08:00 +1°C° 0 mm 4 mps 747 mmHg 95%
    09:00 +3°C° 0 mm 4 mps 747 mmHg 92%
    10:00 +2°C° 0 mm 5 mps 747 mmHg 89%
    11:00 +3°C° 0 mm 5 mps 747 mmHg 86%
    12:00 +3°C° 0 mm 5 mps 747 mmHg 82%
    13:00 +5°C° 0 mm 5 mps 746 mmHg 78%
    14:00 +5°C° 0 mm 5 mps 746 mmHg 74%
    15:00 +5°C° 0 mm 5 mps 746 mmHg 72%
    16:00 +4°C° 0 mm 4 mps 746 mmHg 70%
    17:00 +4°C° 0 mm 3 mps 746 mmHg 68%
    18:00 +3°C° 0 mm 4 mps 746 mmHg 70%
    19:00 +3°C° 0 mm 4 mps 746 mmHg 73%
    20:00 +1°C° 0 mm 4 mps 746 mmHg 75%
    21:00 +1°C° 0 mm 4 mps 746 mmHg 78%
    22:00 +1°C° 0 mm 4 mps 746 mmHg 80%
    23:00 +1°C° 0 mm 4 mps 746 mmHg 82%
    Show more